Station FMRF1 - 8725520 - Fort Myers, FL Image indicating link to RSS feed of recent meteorological observations for station FMRF1


Conditions at FMRF1 as of
(12:48 pm EDT)
1648 GMT on 04/18/2024:
     

Click on the graph icon in the table below to see a time series plot of the last five days of that observation.

5-day plot - Wind Direction Wind Direction (WDIR): N ( 360 deg true )
5-day plot - Wind Speed Wind Speed (WSPD): 7.0 kts
5-day plot - Wind Gust Wind Gust (GST): 8.0 kts
5-day plot - Atmospheric Pressure Atmospheric Pressure (PRES):30.12 in
5-day plot - Air Temperature Air Temperature (ATMP): 78.3 °F
5-day plot - Water Temperature Water Temperature (WTMP): 78.6 °F
5-day plot - Wind Speed at 10 Meters Wind Speed at 10 meters (WSPD10M): 7.8 kts
5-day plot - Wind Speed at 20 Meters Wind Speed at 20 meters (WSPD20M): 7.8 kts
5-day plot -  Wind Speed, Wind Gust and Atmospheric Pressure Combined plot of Wind Speed, Gust, and Air Pressure
NOS Water Level Observation Network Water Level
Previous observations
TIME
(EDT)
5-day plot - Wind Direction
WDIR
 
5-day plot - Wind Speed
WSPD
kts
5-day plot - Wind Gust
GST
kts
5-day plot - Wave Height
WVHT
ft
5-day plot - Dominant Wave Period
DPD
sec
5-day plot - Average Wave Period
APD
sec
5-day plot - Mean Wave Direction
MWD
 
5-day plot - Atmospheric Pressure
PRES
in
5-day plot - Pressure Tendency
PTDY
in
5-day plot - Air Temperature
ATMP
°F
5-day plot - Water Temperature
WTMP
°F
5-day plot - Dew Point
DEWP
°F
5-day plot - Salinity
SAL
psu
5-day plot - Visibility
VIS
nmi
5-day plot - Tide (above MLLW)
TIDE
ft
2024-04-18 12:42 pmNNE 6.0 9.9----30.12- 78.3 78.6----
2024-04-18 12:36 pmNNW 5.1 6.0----30.13- 78.8 78.6----
2024-04-18 12:30 pm NE 2.9 6.0----30.13- 78.1 78.6----
2024-04-18 12:24 pm N 5.1 8.0----30.13- 77.9 78.4----
2024-04-18 12:18 pm N 7.0 8.0----30.13- 77.7 78.4----
2024-04-18 12:12 pm N 6.0 7.0----30.13- 78.1 78.4----
2024-04-18 12:06 pm N 5.1 6.0----30.13- 77.5 78.4----
2024-04-18 12:00 pm N 5.1 7.0----30.13+0.01 77.9 78.4----
2024-04-18 11:54 amNNW 5.1 7.0----30.14- 78.3 78.4----
2024-04-18 11:48 am N 4.1 6.0----30.14- 78.1 78.4----
2024-04-18 11:42 am N 5.1 6.0----30.14- 77.0 78.3----
2024-04-18 11:36 am N 5.1 7.0----30.14- 76.8 78.3----
2024-04-18 11:30 am N 5.1 6.0----30.14- 76.8 78.3----
2024-04-18 11:24 am N 4.1 8.0----30.14- 76.6 78.3----
2024-04-18 11:18 am N 5.1 6.0----30.14- 76.1 78.1----
2024-04-18 11:12 am N 5.1 6.0----30.14- 75.9 78.1----
2024-04-18 11:06 am N 2.9 6.0----30.14- 75.9 78.1----
2024-04-18 11:00 am N 4.1 7.0----30.14+0.04 75.6 78.1----
2024-04-18 10:54 am N 5.1 6.0----30.14- 75.4 78.1----
2024-04-18 10:48 am N 4.1 5.1------------
2024-04-18 10:42 am N 2.9 5.1------------
2024-04-18 10:36 am N 4.1 6.0------------
2024-04-18 10:30 am N 5.1 7.0----30.14- 74.8 78.1----
2024-04-18 10:24 am N 6.0 7.0----30.14- 74.7 78.1----
2024-04-18 10:18 am N 4.1 5.1----30.14- 74.8 78.1----
2024-04-18 10:12 am N 5.1 5.1----30.14- 74.3 78.1----
2024-04-18 10:06 amNNE 4.1 5.1----30.14- 74.3 78.1----
2024-04-18 10:00 am N 5.1 6.0----30.14+0.06 73.8 78.1----
2024-04-18 09:54 amNNE 4.1 6.0----30.14- 73.8 78.1----
2024-04-18 09:48 amNNE 5.1 5.1----30.14- 73.6 78.1----
2024-04-18 09:42 am N 4.1 5.1----30.13- 73.4 78.1----
2024-04-18 09:36 am N 4.1 6.0----30.13- 73.6 77.9----
2024-04-18 09:30 amNNE 4.1 5.1----30.13- 73.2 77.9----
2024-04-18 09:24 am N 5.1 6.0----30.13- 73.2 78.1----
2024-04-18 09:18 amNNE 2.9 5.1----30.12- 73.0 78.3----
2024-04-18 09:12 amNNE 2.9 5.1----30.12- 73.0 78.3----
2024-04-18 09:06 am NE 2.9 4.1----30.12- 73.4 78.3----
2024-04-18 09:00 am NE 2.9 4.1----30.12+0.07 73.2 78.3----
2024-04-18 08:54 am NE 2.9 4.1----30.12- 72.5 78.3----
2024-04-18 08:48 amENE 2.9 5.1----30.11- 72.7 78.3----
2024-04-18 08:42 amENE 4.1 5.1----30.11- 72.5 78.1----
2024-04-18 08:36 am NE 2.9 4.1----30.11- 72.3 78.1----
2024-04-18 08:30 am E 2.9 4.1----30.11- 72.0 78.1----
2024-04-18 08:24 am E 2.9 5.1----30.11- 71.8 78.1----
2024-04-18 08:18 am E 2.9 5.1----30.11- 71.2 78.1----
2024-04-18 08:12 am E 2.9 5.1----30.11- 70.7 78.1----
2024-04-18 08:06 am E 4.1 5.1----30.10- 70.2 78.1----
2024-04-18 08:00 am E 2.9 5.1----30.11+0.04 70.0 78.3----
2024-04-18 07:54 amESE 2.9 5.1----30.10- 70.0 78.3----
2024-04-18 07:48 amESE 2.9 6.0----30.10- 69.8 78.4----
2024-04-18 07:42 am E 1.9 4.1----30.10- 69.4 78.4----
2024-04-18 07:36 amESE 1.9 5.1----30.09- 68.7 78.6----
2024-04-18 07:30 am E 2.9 5.1----30.09- 68.5 78.8----
2024-04-18 07:24 am E 2.9 5.1----30.09- 68.5 78.8----
2024-04-18 07:18 am E 1.9 4.1----30.09- 68.5 78.8----
2024-04-18 07:12 am E 1.9 4.1----30.09- 68.5 78.8----
2024-04-18 07:06 am E 2.9 4.1----30.09- 68.4 78.8----
2024-04-18 07:00 am SE 1.9 2.9----30.08+0.02 68.5 78.8----
2024-04-18 06:54 amESE 1.9 1.9----30.08- 68.4 78.8----
2024-04-18 06:48 amESE 1.9 2.9----30.08- 68.0 78.8----
2024-04-18 06:42 amESE 1.0 1.9----30.07- 68.2 78.8----
2024-04-18 06:36 amSSE 1.0 5.1----30.07- 68.0 78.8----
2024-04-18 06:30 am SE 2.9 6.0----30.06- 67.8 78.8----
2024-04-18 06:24 am SE 5.1 7.0----30.06- 67.8 78.8----
2024-04-18 06:18 am SE 5.1 7.0----30.05- 67.8 78.8----
2024-04-18 06:12 am SE 4.1 6.0----30.06- 68.0 79.0----
2024-04-18 06:06 amESE 5.1 6.0----30.06- 67.8 79.0----
2024-04-18 06:00 am SE 5.1 7.0----30.05-0.02 68.0 79.0----
2024-04-18 05:54 am SE 5.1 7.0----30.05- 68.2 79.3----
2024-04-18 05:48 am SE 5.1 6.0----30.05- 68.4 79.3----
2024-04-18 05:42 am SE 4.1 5.1----30.06- 68.5 79.3----
2024-04-18 05:36 amESE 4.1 6.0----30.06- 68.7 79.3----
2024-04-18 05:30 am SE 4.1 5.1----30.06- 68.7 79.3----
2024-04-18 05:24 am SE 4.1 5.1----30.06- 68.9 79.3----
2024-04-18 05:18 am SE 2.9 4.1----30.06- 68.9 79.3----
2024-04-18 05:12 am SE 4.1 5.1----30.06- 69.1 79.3----
2024-04-18 05:06 am SE 2.9 4.1----30.06- 69.1 79.3----
2024-04-18 05:00 am SE 2.9 4.1----30.07-0.03 69.3 79.3----
2024-04-18 04:54 am SE 2.9 5.1----30.06- 69.1 79.3----
2024-04-18 04:48 am SE 2.9 4.1----30.06- 69.3 79.3----
2024-04-18 04:42 am SE 2.9 2.9----30.06- 69.3 79.3----
2024-04-18 04:36 am SE 2.9 4.1----30.06- 69.4 79.3----
2024-04-18 04:30 am SE 1.9 4.1----30.06- 69.4 79.3----
2024-04-18 04:24 am SE 2.9 4.1----30.06- 69.4 79.3----
2024-04-18 04:18 am SE 2.9 5.1----30.06- 69.4 79.5----
2024-04-18 04:12 am SE 2.9 5.1----30.06- 69.6 79.5----
2024-04-18 04:06 am SE 2.9 4.1----30.06- 69.8 79.5----
2024-04-18 04:00 am SE 2.9 5.1----30.06-0.05 69.8 79.5----
2024-04-18 03:54 am SE 2.9 4.1----30.06- 69.8 79.5----
2024-04-18 03:48 am SE 1.9 4.1----30.06- 70.0 79.5----
2024-04-18 03:42 amSSE 2.9 5.1----30.06- 70.2 79.5----
2024-04-18 03:36 am SE 2.9 4.1----30.06- 70.3 79.5----
2024-04-18 03:30 am SE 2.9 5.1----30.06- 70.3 79.5----
2024-04-18 03:24 amSSE 4.1 6.0----30.06- 70.3 79.7----
2024-04-18 03:18 am SE 2.9 6.0----30.07- 70.7 79.7----
2024-04-18 03:12 am SE 4.1 5.1----30.07- 70.5 79.7----
2024-04-18 03:06 am SE 4.1 6.0----30.07- 70.7 79.7----
2024-04-18 03:00 am SE 4.1 6.0----30.07-0.06 70.7 79.7----
2024-04-18 02:54 amSSE 4.1 6.0----30.08- 70.9 79.9----
2024-04-18 02:48 am SE 5.1 7.0----30.07- 70.9 79.9----
2024-04-18 02:42 amSSE 5.1 8.0----30.08- 71.1 79.9----
2024-04-18 02:36 amSSE 6.0 8.0----30.08- 70.9 79.9----
2024-04-18 02:30 am SE 5.1 8.0----30.08- 71.1 80.1----
2024-04-18 02:24 am SE 5.1 7.0----30.08- 71.4 80.1----
2024-04-18 02:18 amSSE 5.1 7.0----30.09- 71.2 80.1----
2024-04-18 02:12 am SE 5.1 8.0----30.09- 71.4 80.1----
2024-04-18 02:06 amSSE 5.1 7.0----30.09- 71.4 80.2----
2024-04-18 02:00 am SE 4.1 6.0----30.09-0.04 71.6 80.2----
2024-04-18 01:54 am SE 4.1 6.0----30.10- 71.8 80.2----
2024-04-18 01:48 amSSE 2.9 5.1----30.10- 72.0 80.2----
2024-04-18 01:42 amSSE 4.1 7.0----30.10- 72.1 80.2----
2024-04-18 01:36 amSSE 5.1 7.0----30.11- 72.3 80.2----
2024-04-18 01:30 amSSE 5.1 8.0----30.11- 72.5 80.4----
2024-04-18 01:24 amSSE 5.1 8.0----30.11- 72.7 80.4----
2024-04-18 01:18 amSSE 5.1 8.9----30.11- 72.7 80.4----
2024-04-18 01:12 amSSE 7.0 9.9----30.11- 72.7 80.4----
2024-04-18 01:06 amSSE 6.0 8.0----30.11- 72.9 80.4----
2024-04-18 01:00 amSSE 5.1 8.0----30.11-0.02 73.0 80.4----
2024-04-18 12:54 am SE 5.1 8.0----30.11- 72.9 80.6----
2024-04-18 12:48 am SE 5.1 6.0----30.12- 72.9 80.6----
2024-04-18 12:42 amESE 4.1 5.1----30.12- 72.9 80.6----
2024-04-18 12:36 am E 2.9 4.1----30.12- 73.0 80.6----
2024-04-18 12:30 amESE 1.9 2.9----30.13- 73.6 80.6----
2024-04-18 12:24 amESE 1.9 4.1----30.13- 73.8 80.6----
2024-04-18 12:18 am E 2.9 4.1----30.13- 73.9 80.6----
2024-04-18 12:12 amNNE 2.9 4.1----30.14- 73.8 80.6----
2024-04-18 12:06 amENE 1.9 4.1----30.14- 73.6 80.6----
2024-04-18 12:00 amENE 1.0 1.9----30.14+0.03 73.9 80.6----
2024-04-17 11:54 pmESE 1.0 2.9----30.14- 74.1 80.6----
2024-04-17 11:48 pmENE 1.9 2.9----30.14- 73.9 80.6----
2024-04-17 11:42 pmNNW 2.9 5.1----30.14- 74.1 80.6----
2024-04-17 11:36 pm NW 5.1 6.0----30.14- 74.1 80.6----
2024-04-17 11:30 pmNNW 5.1 5.1----30.14- 74.3 80.6----
2024-04-17 11:24 pm NW 5.1 5.1----30.14- 74.7 80.6----
2024-04-17 11:18 pm NW 5.1 6.0----30.14- 74.7 80.8----
2024-04-17 11:12 pm NW 2.9 4.1----30.14- 74.7 80.8----
2024-04-17 11:06 pmNNW 4.1 5.1----30.14- 74.5 80.8----
2024-04-17 11:00 pmNNW 4.1 5.1----30.14+0.05 74.3 80.8----
2024-04-17 10:54 pmNNW 4.1 5.1----30.14- 74.5 80.8----
2024-04-17 10:48 pmNNW 5.1 6.0----30.14- 74.3 80.8----
2024-04-17 10:42 pmNNW 5.1 6.0----30.14- 74.5 80.8----
2024-04-17 10:36 pmNNW 5.1 5.1----30.14- 74.7 80.8----
2024-04-17 10:30 pmNNW 4.1 5.1----30.14- 74.8 80.8----
2024-04-17 10:24 pmNNW 5.1 5.1----30.14- 74.8 80.8----
2024-04-17 10:18 pmNNW 2.9 5.1----30.14- 74.8 80.8----
2024-04-17 10:12 pmNNW 4.1 5.1----30.14- 75.0 80.8----
2024-04-17 10:06 pmNNW 4.1 6.0----30.14- 75.2 81.0----
2024-04-17 10:00 pmNNW 5.1 6.0----30.14+0.06 75.2 81.0----
2024-04-17 09:54 pmNNW 6.0 7.0----30.14- 75.4 81.0----
2024-04-17 09:48 pmNNW 6.0 8.0----30.13- 75.4 81.0----
2024-04-17 09:42 pmNNW 5.1 7.0----30.13- 75.6 81.0----
2024-04-17 09:36 pmNNW 5.1 6.0----30.12- 75.7 81.0----
2024-04-17 09:30 pmNNW 6.0 8.0----30.12- 75.7 81.0----
2024-04-17 09:24 pmNNW 6.0 8.0----30.12- 76.3 81.0----
2024-04-17 09:18 pmNNW 5.1 8.0----30.12- 76.5 81.0----
2024-04-17 09:12 pmNNW 7.0 8.9----30.12- 76.5 81.0----
2024-04-17 09:06 pmNNW 7.0 8.9----30.11- 76.6 81.0----
2024-04-17 09:00 pmNNW 6.0 7.0----30.11+0.04 76.6 81.0----
2024-04-17 08:54 pm NW 6.0 7.0----30.11- 76.8 81.0----
2024-04-17 08:48 pm NW 6.0 7.0----30.11- 77.2 81.0----
2024-04-17 08:42 pm NW 5.1 6.0----30.11- 77.4 81.0----
2024-04-17 08:36 pm NW 6.0 8.0----30.10- 77.4 81.0----
2024-04-17 08:30 pm NW 6.0 8.0----30.10- 77.7 81.1----
2024-04-17 08:24 pmWNW 7.0 7.0----30.10- 77.7 81.1----
2024-04-17 08:18 pmWNW 5.1 7.0----30.09- 77.9 81.1----
2024-04-17 08:12 pmWNW 6.0 7.0----30.09- 78.1 81.1----
2024-04-17 08:06 pmWNW 5.1 7.0----30.09- 78.1 81.1----
2024-04-17 08:00 pmWNW 6.0 7.0----30.09+0.03 78.1 81.0----
2024-04-17 07:54 pm W 6.0 8.0----30.09- 78.3 81.0----
2024-04-17 07:48 pm W 5.1 7.0----30.08- 78.6 80.8----
2024-04-17 07:42 pm W 6.0 7.0----30.08- 78.4 80.6----
2024-04-17 07:36 pm W 5.1 7.0----30.08- 78.8 80.4----
2024-04-17 07:30 pm W 5.1 7.0----30.08- 78.8 80.4----
2024-04-17 07:24 pm W 6.0 7.0----30.07- 78.8 80.1----
2024-04-17 07:18 pm W 7.0 8.0----30.07- 79.2 79.9----
2024-04-17 07:00 pm W 7.0 8.9----30.07+0.00 79.5 79.3----
2024-04-17 06:54 pm W 6.0 7.0----30.07- 79.9 79.2----
2024-04-17 06:48 pm W 6.0 8.9----30.07- 79.5 79.0----
2024-04-17 06:42 pm W 8.0 11.1----30.07- 79.3 78.8----
2024-04-17 06:36 pmWSW 7.0 8.9----30.07- 79.7 78.8----
2024-04-17 06:30 pm W 8.0 9.9----30.06- 79.7 78.8----
2024-04-17 06:24 pm W 8.0 9.9----30.06- 79.9 78.8----
2024-04-17 06:18 pmWSW 6.0 8.9----30.06- 79.7 78.4----
2024-04-17 06:12 pmWSW 8.9 9.9----30.06- 79.5 78.4----
2024-04-17 06:06 pm W 8.9 11.1----30.06- 80.2 78.4----
2024-04-17 06:00 pm W 8.0 9.9----30.06-0.03- 78.6----
2024-04-17 05:54 pm W 8.9 11.1----30.06-- 79.2----
2024-04-17 05:48 pm W 8.0 11.1----30.06- 80.4 79.2----
2024-04-17 05:42 pmWSW 8.0 11.1----30.06- 80.6 79.2----
2024-04-17 05:36 pm W 8.9 11.1----30.06- 80.8 79.0----
2024-04-17 05:30 pm W 8.0 11.1----30.06- 81.1 79.0----
2024-04-17 05:24 pmWSW 8.9 11.1----30.06- 81.0 79.0----
2024-04-17 05:18 pmWSW 8.9 11.1----30.06- 81.5 79.2----
2024-04-17 05:12 pmWSW 6.0 8.9----30.07- 82.6 79.5----
2024-04-17 05:06 pm SW 5.1 12.0----30.07- 84.2 80.6----
2024-04-17 05:00 pm W 7.0 11.1----30.06-0.06 84.2 79.7----
2024-04-17 04:54 pmNNW 1.9 2.9----30.06- 87.1 78.6----
2024-04-17 04:48 pm S 4.1 6.0----30.06- 85.6 78.1----
2024-04-17 04:42 pm E 1.9 9.9----30.06- 85.5 77.9----
2024-04-17 04:36 pm SE 6.0 9.9----30.07- 85.5 77.9----
2024-04-17 04:30 pm NE 4.1 8.9----30.07- 85.1 77.7----
2024-04-17 04:24 pmESE 2.9 12.0----30.07- 86.0 77.7----
2024-04-17 04:18 pm SE 6.0 11.1----30.07- 85.5 77.9----
2024-04-17 04:12 pm E 4.1 8.9----30.07- 85.3 77.9----
2024-04-17 04:06 pm NE 4.1 8.0----30.07- 84.4 77.7----
2024-04-17 04:00 pm NE 5.1 9.9----30.07-0.06 84.2 77.7----
2024-04-17 03:54 pmENE 5.1 8.0----30.08- 84.4 77.7----
2024-04-17 03:48 pmENE 5.1 12.0----30.08- 84.4 77.9----
2024-04-17 03:42 pm NE 5.1 11.1----30.09- 84.4 78.1----
2024-04-17 03:36 pmENE 5.1 8.0----30.09- 84.4 78.1----
2024-04-17 03:30 pm SE 8.0 14.0----30.09- 84.7 77.9----
2024-04-17 03:24 pmESE 7.0 9.9----30.09- 84.6 77.7----
2024-04-17 03:18 pm SE 4.1 13.0----30.09- 84.4 77.5----
2024-04-17 03:12 pmENE 6.0 8.9----30.09- 84.2 77.4----
2024-04-17 03:06 pm SE 2.9 7.0----30.09- 84.2 77.4----
2024-04-17 03:00 pm E 5.1 11.1----30.10-0.05 84.4 77.4----
2024-04-17 02:54 pmESE 6.0 8.0----30.10- 84.4 77.4----
2024-04-17 02:48 pm SE 4.1 8.0----30.10- 84.4 77.4----
2024-04-17 02:42 pmENE 7.0 11.1----30.10- 83.5 77.5----
2024-04-17 02:36 pm E 4.1 15.0----30.10- 83.5 77.5----
2024-04-17 02:30 pmENE 6.0 13.0----30.11- 84.0 77.4----
2024-04-17 02:24 pmESE 4.1 9.9----30.11- 83.8 77.4----
2024-04-17 02:18 pm SE 7.0 12.0----30.11- 83.7 77.4----
2024-04-17 02:12 pmENE 4.1 11.1----30.11- 83.3 77.4----
2024-04-17 02:06 pmESE 5.1 14.0----30.11- 83.1 77.4----
2024-04-17 02:00 pm E 4.1 11.1----30.12-0.03 82.8 77.4----
2024-04-17 01:54 pm SE 8.0 12.0----30.12- 83.1 77.4----
2024-04-17 01:48 pm E 4.1 12.0----30.11- 82.4 77.4----
2024-04-17 01:42 pm SE 7.0 11.1----30.11- 82.2 77.2----
2024-04-17 01:36 pmENE 8.0 12.0----30.12- 82.0 77.2----
2024-04-17 01:30 pmENE 6.0 9.9----30.12- 81.7 77.2----
2024-04-17 01:24 pmENE 8.0 12.0----30.13- 81.1 77.2----
2024-04-17 01:18 pmENE 5.1 11.1----30.12- 81.9 77.0----
2024-04-17 01:12 pm E 4.1 12.0----30.13- 81.5 77.0----
2024-04-17 01:06 pm E 7.0 11.1----30.13- 81.5 77.0----
2024-04-17 01:00 pmENE 8.0 9.9----30.13+0.00 80.8 77.0----
2024-04-17 12:54 pm NE 2.9 9.9----30.14- 80.4 77.0----